"Period start","avg(HW err(1)/warn(2) (#))","avg(Visibility (m))","avg(Weather code (#))","avg(Precip intensity (mm/h))","min(HW err(1)/warn(2) (#))","max(HW err(1)/warn(2) (#))","std(HW err(1)/warn(2) (#))","med(HW err(1)/warn(2) (#))","min(Visibility (m))","max(Visibility (m))","std(Visibility (m))","med(Visibility (m))","min(Weather code (#))","max(Weather code (#))","std(Weather code (#))","med(Weather code (#))","min(Precip intensity (mm/h))","max(Precip intensity (mm/h))","std(Precip intensity (mm/h))","med(Precip intensity (mm/h))"
2014-04-29 00:00:00,2,31256,0,0.00,2,2,0,2,22969,37492,5325,32828,0,0,0,0,0.00,0.00,0.00,0.00
2014-04-29 00:10:00,2,27967,0,0.00,2,2,0,2,20320,43915,7364,24899,0,0,0,0,0.00,0.00,0.00,0.00
2014-04-29 00:20:00,2,38679,0,0.00,2,2,0,2,26540,50000,6698,39461,0,0,0,0,0.00,0.00,0.00,0.00
2014-04-29 00:30:00,2,33741,0,0.00,2,2,0,2,23599,50000,8484,31994,0,0,0,0,0.00,0.00,0.00,0.00
2014-04-29 00:40:00,2,36121,0,0.00,2,2,0,2,24326,50000,9125,37256,0,0,0,0,0.00,0.00,0.00,0.00
2014-04-29 00:50:00,2,29862,0,0.00,2,2,0,2,21794,35120,4310,29650,0,0,0,0,0.00,0.00,0.00,0.00
2014-04-29 01:00:00,2,32588,0,0.00,2,2,0,2,26825,40549,4520,31105,0,0,0,0,0.00,0.00,0.00,0.00
2014-04-29 01:10:00,2,35446,0,0.00,2,2,0,2,27582,44570,5926,33865,0,0,0,0,0.00,0.00,0.00,0.00
2014-04-29 01:20:00,2,34277,0,0.00,2,2,0,2,20261,42364,6171,36190,0,0,0,0,0.00,0.00,0.00,0.00
2014-04-29 01:30:00,2,23993,0,0.00,2,2,0,2,17046,29111,3409,23872,0,0,0,0,0.00,0.00,0.00,0.00
2014-04-29 01:40:00,2,38911,0,0.00,2,2,0,2,26947,50000,8156,39936,0,0,0,0,0.00,0.00,0.00,0.00
2014-04-29 01:50:00,2,34800,0,0.00,2,2,0,2,25155,45775,6347,35950,0,0,0,0,0.00,0.00,0.00,0.00
2014-04-29 02:00:00,2,36741,0,0.00,2,2,0,2,22244,50000,9095,33958,0,0,0,0,0.00,0.00,0.00,0.00
2014-04-29 02:10:00,2,30951,0,0.00,2,2,0,2,21750,40090,6085,31358,0,0,0,0,0.00,0.00,0.00,0.00
2014-04-29 02:20:00,2,29952,0,0.00,2,2,0,2,26005,36411,3530,28994,0,0,0,0,0.00,0.00,0.00,0.00
2014-04-29 02:30:00,2,25983,0,0.00,2,2,0,2,18426,33238,4746,26593,0,0,0,0,0.00,0.00,0.00,0.00
2014-04-29 02:40:00,2,28942,0,0.00,2,2,0,2,18537,45554,7367,26578,0,0,0,0,0.00,0.00,0.00,0.00
2014-04-29 02:50:00,2,30515,0,0.00,2,2,0,2,26781,38885,3752,28958,0,0,0,0,0.00,0.00,0.00,0.00
2014-04-29 03:00:00,2,28742,0,0.00,2,2,0,2,21182,40850,6761,26276,0,0,0,0,0.00,0.00,0.00,0.00
2014-04-29 03:10:00,2,29180,0,0.00,2,2,0,2,21269,36202,5088,29708,0,0,0,0,0.00,0.00,0.00,0.00
2014-04-29 03:20:00,2,23171,0,0.00,2,2,0,2,16921,34666,5291,21130,0,0,0,0,0.00,0.00,0.00,0.00
2014-04-29 03:30:00,2,23723,0,0.00,2,2,0,2,13759,39121,8110,23228,0,0,0,0,0.00,0.00,0.00,0.00
2014-04-29 03:40:00,2,29451,0,0.00,2,2,0,2,20479,44570,6633,28151,0,0,0,0,0.00,0.00,0.00,0.00
2014-04-29 03:50:00,2,24134,0,0.00,2,2,0,2,14374,33925,5712,25516,0,0,0,0,0.00,0.00,0.00,0.00
2014-04-29 04:00:00,2,23920,0,0.00,2,2,0,2,19633,31886,3842,23068,0,0,0,0,0.00,0.00,0.00,0.00
2014-04-29 04:10:00,2,30527,0,0.00,2,2,0,2,19577,39053,5339,31428,0,0,0,0,0.00,0.00,0.00,0.00
2014-04-29 04:20:00,2,23151,0,0.00,2,2,0,2,16965,40205,6842,19997,0,0,0,0,0.00,0.00,0.00,0.00
2014-04-29 04:30:00,2,25830,0,0.00,2,2,0,2,14699,35639,7414,26480,0,0,0,0,0.00,0.00,0.00,0.00
2014-04-29 04:40:00,2,21118,0,0.00,2,2,0,2,16115,27458,3302,20538,0,0,0,0,0.00,0.00,0.00,0.00
2014-04-29 04:50:00,2,26030,0,0.00,2,2,0,2,22596,32730,3322,25074,0,0,0,0,0.00,0.00,0.00,0.00
2014-04-29 05:00:00,2,31657,0,0.00,2,2,0,2,23859,38506,4545,31842,0,0,0,0,0.00,0.00,0.00,0.00
2014-04-29 05:10:00,2,29974,0,0.00,2,2,0,2,18837,40803,6586,27489,0,0,0,0,0.00,0.00,0.00,0.00
2014-04-29 05:20:00,2,22840,0,0.00,2,2,0,2,18016,30034,3646,22756,0,0,0,0,0.00,0.00,0.00,0.00
2014-04-29 05:30:00,2,23632,0,0.00,2,2,0,2,13802,32700,6106,23508,0,0,0,0,0.00,0.00,0.00,0.00
2014-04-29 05:40:00,2,22892,0,0.00,2,2,0,2,18533,30987,4332,21104,0,0,0,0,0.00,0.00,0.00,0.00
2014-04-29 05:50:00,2,19572,0,0.00,2,2,0,2,16156,26089,2849,18712,0,0,0,0,0.00,0.00,0.00,0.00
2014-04-29 06:00:00,2,20488,0,0.00,2,2,0,2,13991,28376,5499,20817,0,0,0,0,0.00,0.00,0.00,0.00
2014-04-29 06:10:00,2,21856,0,0.00,2,2,0,2,13898,30263,4957,20756,0,0,0,0,0.00,0.00,0.00,0.00
2014-04-29 06:20:00,2,22455,0,0.00,2,2,0,2,15046,31414,5030,22874,0,0,0,0,0.00,0.00,0.00,0.00
2014-04-29 06:30:00,2,28443,0,0.00,2,2,0,2,18220,41014,6880,28293,0,0,0,0,0.00,0.00,0.00,0.00
2014-04-29 06:40:00,2,29502,0,0.00,2,2,0,2,18430,50000,11199,24840,0,0,0,0,0.00,0.00,0.00,0.00
2014-04-29 06:50:00,2,25421,0,0.00,2,2,0,2,14290,39071,7221,24968,0,0,0,0,0.00,0.00,0.00,0.00
2014-04-29 07:00:00,2,21610,0,0.00,2,2,0,2,14762,35197,5927,19832,0,0,0,0,0.00,0.00,0.00,0.00
2014-04-29 07:10:00,2,22912,0,0.00,2,2,0,2,15183,40755,7496,20822,0,0,0,0,0.00,0.00,0.00,0.00
2014-04-29 07:20:00,2,18515,0,0.00,2,2,0,2,13822,22165,2532,17984,0,0,0,0,0.00,0.00,0.00,0.00
2014-04-29 07:30:00,2,17662,0,0.00,2,2,0,2,12857,25555,3870,15928,0,0,0,0,0.00,0.00,0.00,0.00
2014-04-29 07:40:00,2,22690,0,0.00,2,2,0,2,12561,38603,7303,21215,0,0,0,0,0.00,0.00,0.00,0.00
2014-04-29 07:50:00,2,21002,0,0.00,2,2,0,2,12823,27989,4783,20038,0,0,0,0,0.00,0.00,0.00,0.00
2014-04-29 08:00:00,2,18284,0,0.00,2,2,0,2,15968,20757,1723,18303,0,0,0,0,0.00,0.00,0.00,0.00
2014-04-29 08:10:00,2,16642,0,0.00,2,2,0,2,14039,20803,2245,16438,0,0,0,0,0.00,0.00,0.00,0.00
2014-04-29 08:20:00,2,19813,0,0.00,2,2,0,2,16543,29661,3539,18824,0,0,0,0,0.00,0.00,0.00,0.00
2014-04-29 08:30:00,2,17416,0,0.00,2,2,0,2,13267,23946,2574,17162,0,0,0,0,0.00,0.00,0.00,0.00
2014-04-29 08:40:00,2,20961,0,0.00,2,2,0,2,15882,27153,3749,20354,0,0,0,0,0.00,0.00,0.00,0.00
2014-04-29 08:50:00,2,18836,0,0.00,2,2,0,2,15140,22337,2308,19038,0,0,0,0,0.00,0.00,0.00,0.00
2014-04-29 09:00:00,2,19157,0,0.00,2,2,0,2,15541,21993,2000,19733,0,0,0,0,0.00,0.00,0.00,0.00
2014-04-29 09:10:00,2,17509,0,0.00,2,2,0,2,13267,22598,2716,17829,0,0,0,0,0.00,0.00,0.00,0.00
2014-04-29 09:20:00,2,18082,0,0.00,2,2,0,2,14920,20831,1749,18398,0,0,0,0,0.00,0.00,0.00,0.00
2014-04-29 09:30:00,2,17324,0,0.00,2,2,0,2,13643,22559,2410,16978,0,0,0,0,0.00,0.00,0.00,0.00
2014-04-29 09:40:00,2,19090,0,0.00,2,2,0,2,14198,28694,4126,17967,0,0,0,0,0.00,0.00,0.00,0.00
2014-04-29 09:50:00,2,21147,0,0.00,2,2,0,2,16163,26114,2842,20926,0,0,0,0,0.00,0.00,0.00,0.00
2014-04-29 10:00:00,2,20731,0,0.00,2,2,0,2,17498,26542,2869,20064,0,0,0,0,0.00,0.00,0.00,0.00
2014-04-29 10:10:00,2,20339,0,0.00,2,2,0,2,17482,25378,2034,20366,0,0,0,0,0.00,0.00,0.00,0.00
2014-04-29 10:20:00,2,18860,0,0.00,2,2,0,2,14031,23718,3463,18112,0,0,0,0,0.00,0.00,0.00,0.00
2014-04-29 10:30:00,2,21955,0,0.00,2,2,0,2,18342,26442,2702,22450,0,0,0,0,0.00,0.00,0.00,0.00
2014-04-29 10:40:00,2,22914,0,0.00,2,2,0,2,18081,28992,3725,22640,0,0,0,0,0.00,0.00,0.00,0.00
2014-04-29 10:50:00,2,19648,0,0.00,2,2,0,2,17027,22179,1210,19682,0,0,0,0,0.00,0.00,0.00,0.00
2014-04-29 11:00:00,2,22285,0,0.00,2,2,0,2,17186,25835,2801,22360,0,0,0,0,0.00,0.00,0.00,0.00
2014-04-29 11:10:00,2,21256,0,0.00,2,2,0,2,18362,27677,2489,20756,0,0,0,0,0.00,0.00,0.00,0.00
2014-04-29 11:20:00,2,24198,0,0.00,2,2,0,2,21273,29122,3008,22516,0,0,0,0,0.00,0.00,0.00,0.00
2014-04-29 11:30:00,2,25524,0,0.00,2,2,0,2,21575,31366,3240,25039,0,0,0,0,0.00,0.00,0.00,0.00
2014-04-29 11:40:00,2,24902,0,0.00,2,2,0,2,22654,30607,2327,25026,0,0,0,0,0.00,0.00,0.00,0.00
2014-04-29 11:50:00,2,26968,0,0.00,2,2,0,2,21634,31513,3151,27275,0,0,0,0,0.00,0.00,0.00,0.00
2014-04-29 12:00:00,2,27892,0,0.00,2,2,0,2,23969,33422,3129,26864,0,0,0,0,0.00,0.00,0.00,0.00
2014-04-29 12:10:00,2,26260,0,0.00,2,2,0,2,23320,31622,2912,25093,0,0,0,0,0.00,0.00,0.00,0.00
2014-04-29 12:20:00,2,28507,0,0.00,2,2,0,2,22790,36865,4191,27399,0,0,0,0,0.00,0.00,0.00,0.00
2014-04-29 12:30:00,2,30253,0,0.00,2,2,0,2,25230,40500,4516,29132,0,0,0,0,0.00,0.00,0.00,0.00
2014-04-29 12:40:00,2,28362,0,0.00,2,2,0,2,26671,30915,1372,27839,0,0,0,0,0.00,0.00,0.00,0.00
2014-04-29 12:50:00,2,27283,0,0.00,2,2,0,2,25335,30011,1521,26940,0,0,0,0,0.00,0.00,0.00,0.00
2014-04-29 13:00:00,2,27684,0,0.00,2,2,0,2,23046,32731,3398,27993,0,0,0,0,0.00,0.00,0.00,0.00
2014-04-29 13:10:00,2,27161,0,0.00,2,2,0,2,22731,33418,2992,27002,0,0,0,0,0.00,0.00,0.00,0.00
2014-04-29 13:20:00,2,27630,0,0.00,2,2,0,2,22580,31622,2491,27582,0,0,0,0,0.00,0.00,0.00,0.00
2014-04-29 13:30:00,2,26798,14,0.01,2,2,0,2,22685,29273,2413,28028,0,71,28,0,0.00,0.05,0.02,0.00
2014-04-29 13:40:00,2,28005,30,0.01,2,2,0,2,23800,31711,2511,27901,0,77,36,0,0.00,0.05,0.02,0.00
2014-04-29 13:50:00,2,30948,30,0.00,2,2,0,2,25857,36552,3000,31630,0,78,37,0,0.00,0.00,0.00,0.00
2014-04-29 14:00:00,2,34052,0,0.00,2,2,0,2,28559,41911,4364,33546,0,0,0,0,0.00,0.00,0.00,0.00
2014-04-29 14:10:00,2,37331,0,0.00,2,2,0,2,30816,48289,4601,36626,0,0,0,0,0.00,0.00,0.00,0.00
2014-04-29 14:20:00,2,38919,0,0.00,2,2,0,2,36126,44359,2470,38011,0,0,0,0,0.00,0.00,0.00,0.00
2014-04-29 14:30:00,2,39870,0,0.00,2,2,0,2,30864,48212,5588,39566,0,0,0,0,0.00,0.00,0.00,0.00
2014-04-29 14:40:00,2,37604,0,0.00,2,2,0,2,31688,47460,4993,36800,0,0,0,0,0.00,0.00,0.00,0.00
2014-04-29 14:50:00,2,42052,0,0.00,2,2,0,2,36067,49998,4204,42572,0,0,0,0,0.00,0.00,0.00,0.00
2014-04-29 15:00:00,2,36628,0,0.00,2,2,0,2,22488,43000,6617,38824,0,0,0,0,0.00,0.00,0.00,0.00
2014-04-29 15:10:00,2,39047,0,0.00,2,2,0,2,35054,45479,3393,37600,0,0,0,0,0.00,0.00,0.00,0.00
2014-04-29 15:20:00,2,40093,38,0.00,2,2,0,2,33526,43226,2720,40224,0,78,38,36,0.00,0.00,0.00,0.00
2014-04-29 15:30:00,2,46946,31,0.00,2,2,0,2,37790,50000,3926,49353,0,78,38,0,0.00,0.00,0.00,0.00
2014-04-29 15:40:00,2,40432,0,0.00,2,2,0,2,25596,50000,7322,41301,0,0,0,0,0.00,0.00,0.00,0.00
2014-04-29 15:50:00,2,47857,0,0.00,2,2,0,2,43148,50000,2069,47785,0,0,0,0,0.00,0.00,0.00,0.00
2014-04-29 16:00:00,2,48025,0,0.00,2,2,0,2,44039,50000,2200,49046,0,0,0,0,0.00,0.00,0.00,0.00
2014-04-29 16:10:00,2,43956,0,0.00,2,2,0,2,32404,50000,5367,45438,0,0,0,0,0.00,0.00,0.00,0.00
2014-04-29 16:20:00,2,47917,0,0.00,2,2,0,2,44671,50000,1702,47827,0,0,0,0,0.00,0.00,0.00,0.00
2014-04-29 16:30:00,2,48111,0,0.00,2,2,0,2,39548,50000,3138,49522,0,0,0,0,0.00,0.00,0.00,0.00
2014-04-29 16:40:00,2,46878,0,0.00,2,2,0,2,41065,50000,3228,48050,0,0,0,0,0.00,0.00,0.00,0.00
2014-04-29 16:50:00,2,48182,0,0.00,2,2,0,2,42975,50000,2503,49650,0,0,0,0,0.00,0.00,0.00,0.00
2014-04-29 17:00:00,2,49045,0,0.00,2,2,0,2,44894,50000,1751,50000,0,0,0,0,0.00,0.00,0.00,0.00
2014-04-29 17:10:00,2,49551,0,0.00,2,2,0,2,47867,50000,729,50000,0,0,0,0,0.00,0.00,0.00,0.00
2014-04-29 17:20:00,2,48918,0,0.00,2,2,0,2,42738,50000,2168,50000,0,0,0,0,0.00,0.00,0.00,0.00
2014-04-29 17:30:00,2,50000,0,0.00,2,2,0,2,50000,50000,0,50000,0,0,0,0,0.00,0.00,0.00,0.00
2014-04-29 17:40:00,2,49992,0,0.00,2,2,0,2,49925,50000,22,50000,0,0,0,0,0.00,0.00,0.00,0.00
2014-04-29 17:50:00,2,49718,0,0.00,2,2,0,2,48238,50000,586,50000,0,0,0,0,0.00,0.00,0.00,0.00
2014-04-29 18:00:00,2,46476,0,0.00,2,2,0,2,40028,50000,3710,47653,0,0,0,0,0.00,0.00,0.00,0.00
2014-04-29 18:10:00,2,44088,21,0.01,2,2,0,2,29006,50000,7053,47318,0,71,33,0,0.00,0.10,0.03,0.00
2014-04-29 18:20:00,2,44502,75,0.02,2,2,0,2,30877,50000,5666,45128,71,77,3,77,0.00,0.10,0.03,0.00
2014-04-29 18:30:00,2,47866,16,0.00,2,2,0,2,38928,50000,3373,50000,0,78,31,0,0.00,0.00,0.00,0.00
2014-04-29 18:40:00,2,48714,0,0.00,2,2,0,2,44769,50000,1674,49582,0,0,0,0,0.00,0.00,0.00,0.00
2014-04-29 18:50:00,2,38885,50,0.01,2,2,0,2,20485,50000,9411,38900,0,71,33,71,0.00,0.05,0.02,0.00
2014-04-29 19:00:00,2,32679,51,0.00,2,2,0,2,19308,50000,10195,29380,0,77,33,71,0.00,0.00,0.00,0.00
2014-04-29 19:10:00,2,22388,73,0.07,2,2,0,2,6704,35962,8811,23086,71,77,3,71,0.00,0.20,0.08,0.05
2014-04-29 19:20:00,2,28166,71,0.04,2,2,0,2,14018,39879,6839,28783,71,71,0,71,0.00,0.10,0.03,0.05
2014-04-29 19:30:00,2,23451,71,0.11,2,2,0,2,10514,35183,8339,23390,71,71,0,71,0.00,0.45,0.15,0.03
2014-04-29 19:40:00,2,31583,71,0.04,2,2,0,2,18618,44713,8160,32086,71,71,0,71,0.00,0.15,0.05,0.05
2014-04-29 19:50:00,2,27148,71,0.07,2,2,0,2,12196,46467,10514,25604,71,71,0,71,0.00,0.20,0.08,0.03
2014-04-29 20:00:00,2,32979,36,0.02,2,2,0,2,23815,41799,5608,32279,0,71,36,36,0.00,0.10,0.03,0.00
2014-04-29 20:10:00,2,36957,65,0.03,2,2,0,2,31277,44031,4392,35642,0,77,22,71,0.00,0.10,0.03,0.00
2014-04-29 20:20:00,2,43073,38,0.00,2,2,0,2,32261,49802,5699,44569,0,77,38,38,0.00,0.00,0.00,0.00
2014-04-29 20:30:00,2,31484,36,0.02,2,2,0,2,20637,38448,5768,32438,0,77,36,36,0.00,0.10,0.03,0.00
2014-04-29 20:40:00,2,33301,73,0.02,2,2,0,2,25016,41351,4744,33492,71,77,3,71,0.00,0.15,0.05,0.00
2014-04-29 20:50:00,2,36201,45,0.01,2,2,0,2,27849,42970,5322,35186,0,78,37,71,0.00,0.05,0.02,0.00
2014-04-29 21:00:00,2,36958,78,0.01,2,2,0,2,27002,48606,6358,36642,77,78,0,78,0.00,0.10,0.03,0.00
2014-04-29 21:10:00,2,11750,72,0.38,2,2,0,2,7219,21254,5052,9570,71,78,3,71,0.05,0.70,0.19,0.38
2014-04-29 21:20:00,2,11884,71,0.24,2,2,0,2,8057,16416,3135,11634,71,71,0,71,0.05,0.45,0.13,0.23
2014-04-29 21:30:00,2,19587,71,0.11,2,2,0,2,11336,28947,5435,18608,71,71,0,71,0.00,0.25,0.08,0.12
2014-04-29 21:40:00,2,14696,71,0.12,2,2,0,2,4463,21528,4958,14472,71,71,0,71,0.00,0.40,0.13,0.08
2014-04-29 21:50:00,2,10184,71,0.07,2,2,0,2,3996,14492,3414,10904,71,71,0,71,0.00,0.40,0.12,0.03
2014-04-29 22:00:00,2,9968,71,0.04,2,2,0,2,6075,13019,2036,9634,71,71,0,71,0.00,0.15,0.05,0.03
2014-04-29 22:10:00,2,4621,71,0.11,2,2,0,2,2344,8519,1767,4388,71,71,0,71,0.00,0.40,0.13,0.05
2014-04-29 22:20:00,2,1120,71,0.11,2,2,0,2,806,1521,295,1044,71,71,0,71,0.00,0.45,0.16,0.05
2014-04-29 22:30:00,2,779,71,0.06,2,2,0,2,634,958,105,797,71,71,0,71,0.00,0.30,0.09,0.03
2014-04-29 22:40:00,2,5490,71,0.15,2,2,0,2,993,11265,3752,3854,71,71,0,71,0.00,0.75,0.21,0.10
2014-04-29 22:50:00,2,11233,56,0.16,2,2,0,2,5967,17039,4045,10180,20,71,23,71,0.00,0.50,0.18,0.10
2014-04-29 23:00:00,2,12056,71,0.49,2,2,0,2,4770,27154,7441,8916,71,71,0,71,0.00,1.45,0.46,0.35
2014-04-29 23:10:00,2,19027,71,0.28,2,2,0,2,2928,36537,11069,19345,71,71,0,71,0.00,1.30,0.42,0.03
2014-04-29 23:20:00,2,14037,71,0.15,2,2,0,2,6993,25022,4932,14464,71,71,0,71,0.00,0.60,0.18,0.10
2014-04-29 23:30:00,2,10058,71,0.15,2,2,0,2,5149,15874,3152,9897,71,71,0,71,0.00,0.60,0.17,0.15
2014-04-29 23:40:00,2,9086,71,0.20,2,2,0,2,4885,14892,3207,8149,71,71,0,71,0.00,0.65,0.24,0.03
2014-04-29 23:50:00,2,8978,71,0.15,2,2,0,2,4144,12494,2551,9294,71,71,0,71,0.00,0.50,0.18,0.10
